Burns, OR

2:50 AM PDT on April 21, 2018 (GMT -0700)
Burns Municipal

Weather History for KBNO - November, 2013

Change the Weather History Date:

Tuesday, November 5, 2013

  Actual Average Record
Temperature  
Mean Temperature 30 °F 38 °F  
Max Temperature 36 °F 51 °F 71 °F (1976)
Min Temperature 24 °F 24 °F 8 °F (2011)
Degree Days  
Heating Degree Days 35 27  
Month to date heating degree days 155 133  
Since 1 July heating degree days 1176 1183  
Cooling Degree Days 0 0  
Month to date cooling degree days 0 0  
Year to date cooling degree days 372 215  
Moisture  
Dew Point 32 °F    
Average Humidity 96    
Maximum Humidity 100    
Minimum Humidity 92    
Precipitation  
Precipitation 0.11 in 0.03 in 0.49 in (2005)
Month to date precipitation 0.15 0.17  
Year to date precipitation 6.38 8.37  
Sea Level Pressure  
Sea Level Pressure 30.24 in    
Wind  
Wind Speed 2 mph (NNE)    
Max Wind Speed 7 mph    
Max Gust Speed 7 mph    
Visibility 6 miles    
Events Rain , Snow    
T = Trace of Precipitation, MM = Missing Value Source: NWS Daily Summary

Daily Weather History Graph

Daily Weather History Graph

Search for Another Location

Airport or City:

Astronomy

Nov. 05, 2013 Rise Set
Actual Time 6:37 AM PST 4:41 PM PST
Civil Twilight 6:06 AM PST 5:11 PM PST
Nautical Twilight 5:32 AM PST 5:45 PM PST
Astronomical Twilight 4:59 AM PST 6:18 PM PST
Moon 8:59 AM PST (11/5) 6:44 PM PST (11/5)
Length of Visible Light 11h 04m
Length of Day
10h 04m
Waxing Crescent, 7% of the Moon is Illuminated
Nov 5
Waxing Crescent
Nov 9
First Quarter
Nov 17
Full
Nov 25
Last Quarter
Dec 2
New

Hourly Weather History & Observations

Time (PST) Temp. Windchill Dew Point Humidity Pressure Visibility Wind Dir Wind Speed Gust Speed Precip Events Conditions
12:53 AM 24.1 °F 19.7 °F 23.0 °F 96% 30.23 in 10.0 mi NNE 3.5 mph - N/A   Overcast
1:53 AM 27.0 °F 23.0 °F 25.0 °F 92% 30.23 in 10.0 mi North 3.5 mph - N/A   Overcast
2:53 AM 28.0 °F - 27.0 °F 96% 30.22 in 10.0 mi Calm Calm - N/A   Overcast
3:53 AM 28.0 °F - 27.0 °F 96% 30.24 in 10.0 mi Calm Calm - N/A   Overcast
4:31 AM 28.0 °F 24.2 °F 27.0 °F 96% 30.17 in 10.0 mi North 3.5 mph - N/A   Overcast
4:53 AM 28.9 °F - 27.0 °F 92% 30.24 in 10.0 mi Calm Calm - N/A   Overcast
5:53 AM 28.9 °F 23.9 °F 28.0 °F 96% 30.25 in 10.0 mi NNW 4.6 mph - N/A   Overcast
6:44 AM 30.0 °F 26.5 °F 28.9 °F 96% 30.19 in 1.8 mi WSW 3.5 mph - 0.00 in Snow Light Snow
6:53 AM 30.0 °F 26.5 °F 28.9 °F 96% 30.27 in 1.5 mi West 3.5 mph - 0.00 in Snow Light Snow
6:58 AM 30.0 °F - 28.9 °F 96% 30.19 in 3.0 mi Calm Calm - 0.01 in Snow Light Snow
7:04 AM 30.0 °F - 28.9 °F 96% 30.20 in 1.5 mi Calm Calm - 0.01 in Snow Light Snow
7:13 AM 30.0 °F - 28.9 °F 96% 30.20 in 3.0 mi Calm Calm - 0.01 in Snow Light Snow
7:53 AM 30.9 °F - 28.9 °F 92% 30.29 in 7.0 mi Calm Calm - 0.01 in Snow Light Snow
8:08 AM 30.9 °F - 30.0 °F 96% 30.22 in 10.0 mi Calm Calm - 0.00 in   Overcast
8:53 AM 32.0 °F - 30.0 °F 92% 30.30 in 7.0 mi Calm Calm - 0.00 in Snow Light Snow
9:01 AM 32.0 °F - 30.0 °F 92% 30.23 in 9.0 mi Calm Calm - 0.00 in   Overcast
9:12 AM 32.0 °F - 30.0 °F 92% 30.23 in 9.0 mi Calm Calm - 0.00 in   Overcast
9:53 AM 32.0 °F - 30.9 °F 96% 30.32 in 6.0 mi Calm Calm - 0.00 in   Overcast
10:39 AM 33.1 °F 30.0 °F 32.0 °F 96% 30.23 in 2.5 mi NNE 3.5 mph - 0.00 in Snow Light Snow
10:44 AM 33.1 °F 30.0 °F 32.0 °F 96% 30.23 in 1.8 mi NNE 3.5 mph - 0.01 in Snow Light Snow
10:53 AM 33.1 °F 28.7 °F 32.0 °F 96% 30.31 in 1.2 mi NNE 4.6 mph - 0.01 in Snow Light Snow
11:13 AM 33.1 °F 30.0 °F 32.0 °F 96% 30.22 in 0.8 mi ENE 3.5 mph - 0.02 in Snow Light Snow
11:17 AM 33.1 °F - 33.1 °F 100% 30.22 in 1.0 mi Calm Calm - 0.02 in Snow Light Snow
11:42 AM 34.0 °F - 33.1 °F 96% 30.21 in 2.0 mi Calm Calm - 0.03 in Snow Light Snow
11:53 AM 34.0 °F - 33.1 °F 96% 30.29 in 4.0 mi Calm Calm - 0.03 in Snow Light Snow
11:58 AM 34.0 °F - 33.1 °F 96% 30.21 in 1.8 mi Calm Calm - 0.00 in Snow Light Snow
12:14 PM 34.0 °F - 33.1 °F 96% 30.20 in 2.5 mi Calm Calm - 0.01 in Snow Light Snow
12:22 PM 34.0 °F - 33.1 °F 96% 30.20 in 3.0 mi Calm Calm - 0.02 in Snow Light Snow
12:40 PM 34.0 °F 31.0 °F 33.1 °F 96% 30.20 in 5.0 mi NE 3.5 mph - 0.02 in Snow Light Snow
12:53 PM 34.0 °F 31.0 °F 33.1 °F 96% 30.29 in 3.0 mi North 3.5 mph - 0.02 in Snow Light Snow
1:01 PM 34.0 °F 31.0 °F 33.1 °F 96% 30.20 in 1.8 mi NNE 3.5 mph - 0.01 in Snow Light Snow
1:10 PM 33.1 °F 30.0 °F 33.1 °F 100% 30.20 in 1.0 mi NE 3.5 mph - 0.02 in Snow Light Snow
1:20 PM 33.1 °F 30.0 °F 33.1 °F 100% 30.20 in 1.5 mi NE 3.5 mph - 0.03 in Snow Light Snow
1:25 PM 34.0 °F 31.0 °F 33.1 °F 96% 30.20 in 3.0 mi NNE 3.5 mph - 0.03 in Snow Light Snow
1:45 PM 34.0 °F 28.8 °F 33.1 °F 96% 30.20 in 10.0 mi North 5.8 mph - 0.03 in   Overcast
1:53 PM 34.0 °F 28.8 °F 34.0 °F 100% 30.27 in 8.0 mi NNE 5.8 mph - 0.03 in   Overcast
2:07 PM 35.1 °F 30.1 °F 34.0 °F 96% 30.19 in 8.0 mi NNE 5.8 mph - N/A   Overcast
2:34 PM 35.1 °F 30.1 °F 34.0 °F 96% 30.20 in 10.0 mi NNE 5.8 mph - N/A   Overcast
2:53 PM 36.0 °F 32.1 °F 34.0 °F 93% 30.26 in 10.0 mi NNE 4.6 mph - N/A   Overcast
3:10 PM 36.0 °F 33.3 °F 35.1 °F 97% 30.19 in 10.0 mi NE 3.5 mph - N/A   Overcast
3:53 PM 36.0 °F - 35.1 °F 97% 30.25 in 10.0 mi Calm Calm - 0.00 in Rain Light Rain
4:53 PM 35.1 °F 32.2 °F 35.1 °F 100% 30.26 in 10.0 mi NNE 3.5 mph - 0.01 in Rain Light Rain
5:53 PM 35.1 °F - 35.1 °F 100% 30.27 in 10.0 mi Calm Calm - 0.00 in   Overcast
6:53 PM 36.0 °F - 35.1 °F 97% 30.28 in 10.0 mi Calm Calm - N/A   Overcast
7:53 PM 35.1 °F - 35.1 °F 100% 30.29 in 9.0 mi Calm Calm - N/A   Overcast
8:12 PM 35.1 °F 32.2 °F 35.1 °F 100% 30.22 in 10.0 mi South 3.5 mph - N/A   Overcast
8:53 PM 35.1 °F - 35.1 °F 100% 30.30 in 6.0 mi Calm Calm - 0.00 in Rain Light Rain
9:00 PM 35.1 °F - 35.1 °F 100% 30.24 in 7.0 mi Calm Calm - 0.00 in Rain Light Rain
9:53 PM 35.1 °F 32.2 °F 35.1 °F 100% 30.31 in 7.0 mi SSE 3.5 mph - 0.00 in   Overcast
10:21 PM 34.0 °F 31.0 °F 34.0 °F 100% 30.25 in 6.0 mi South 3.5 mph - N/A   Overcast
10:45 PM 33.1 °F - 33.1 °F 100% 30.25 in 1.8 mi Calm Calm - N/A   Overcast
10:53 PM 33.1 °F - 32.0 °F 96% 30.32 in 1.2 mi Calm Calm - N/A   Overcast
10:59 PM 33.1 °F 28.7 °F 32.0 °F 96% 30.26 in 0.8 mi NW 4.6 mph - N/A   Overcast
11:11 PM 33.1 °F 30.0 °F 33.1 °F 100% 30.26 in 1.5 mi NW 3.5 mph - N/A   Overcast
11:15 PM 33.1 °F 30.0 °F 33.1 °F 100% 30.26 in 3.0 mi NNW 3.5 mph - N/A   Overcast
11:26 PM 33.1 °F 28.7 °F 32.0 °F 96% 30.27 in 1.8 mi North 4.6 mph - N/A   Mostly Cloudy
11:49 PM 32.0 °F - 32.0 °F 100% 30.27 in 0.8 mi Calm Calm - N/A   Mostly Cloudy
11:53 PM 32.0 °F - 32.0 °F 100% 30.33 in 0.8 mi Calm Calm - N/A   Mostly Cloudy